sat.trackr.live / text

‹ back to catalog

HAWK-9A

NORAD 59446 · 2024-066E

PAYLOAD ACTIVE UNKNOWN

§ Identity

Operator
Country
US
Launch date
2024-04-07
Launch site
AFETR
Launch vehicle
Mass (kg)
RCS (m²)

External: N2YO · Heavens-Above · Gunter

§ Orbital elements

Epoch: 2026-05-25T01:49:48.730944Z

Period
96.06 min
Inclination
45.6114°
Eccentricity
0.0003500
Mean motion
14.99055020 rev/d
Perigee alt
567.4 km
Apogee alt
572.2 km
Semi-major
6,948.0 km
B*
1.1482e-4
RAAN
36.6818°
Arg perigee
275.6163°
Mean anomaly
84.4319°
Rev number
11,636

§ Raw data

HAWK-9A1 59446U 24066E   26145.07625846  .00001183  00000+0  11482-3 0  99932 59446  45.6114  36.6818 0003500 275.6163  84.4319 14.99055020116362

JSON: /api/v1/satellites/59446 · /tle

For live sub-satellite position, see the globe view (requires WebGL).

§ Visibility from observer

Set your observer location to see the next 7 days of passes ≥ 10°. The values pass through the URL so the page stays shareable.

No JS? Fill the form by hand. The geolocation button needs JavaScript.